Skip Page Navigation
NASA JPL Caltech
NASA Logo - Jet Propulsion Laboratory + View the NASA Portal
+ Center for Near-Earth Object Studies
JPL Home Earth Solar System Stars & Galaxies Technology
JPL Solar System Dynamics
BODIES ORBITS EPHEMERIDES TOOLS PHYSICAL DATA DISCOVERY FAQ SITE MAP
JPL Small-Body Database Browser
Search: [ help ]  
312362 (2008 DV59)
Classification: Main-belt Asteroid          SPK-ID: 2312362
Ephemeris | Orbit Diagram | Orbital Elements | Mission Design | Physical Parameters | Discovery Circumstances | Close-Approach Data ]

[ show orbit diagram ]
Orbital Elements at Epoch 2459000.5 (2020-May-31.0) TDB
Reference: JPL 16 (heliocentric ecliptic J2000)
 Element Value Uncertainty (1-sigma)   Units 
e .1158263180031503 6.1681e-08  
a 2.784932352112297 3.1034e-08 au
q 2.462363891879276 1.6037e-07 au
i 9.142091105043237 6.1903e-06 deg
node 191.4892211204637 3.3207e-05 deg
peri 358.3553322412872 4.0693e-05 deg
M 200.556485932145 2.6769e-05 deg
tp 2459752.338842513345
(2022-Jun-21.83884251)
0.00013323 TDB
period 1697.541507957592
4.65
2.8375e-05
7.769e-08
d
yr
n .2120713975548889 3.5449e-09 deg/d
Q 3.107500812345317 3.4629e-08 au
  Orbit Determination Parameters
   # obs. used (total)      211  
   data-arc span      7484 days (20.49 yr)  
   first obs. used      1999-04-07  
   last obs. used      2019-10-03  
   planetary ephem.      DE431  
   SB-pert. ephem.      SB431-N16  
   condition code      0  
   norm. resid. RMS      .54379  
   source      ORB  
   producer      Otto Matic  
   solution date      2019-Nov-08 08:10:44  

Additional Information
 Earth MOID = 1.46272 au 
 Jupiter MOID = 1.84926 au 
 T_jup = 3.303 
[ show covariance matrix ]

Ephemeris | Orbit Diagram | Orbital Elements | Mission Design | Physical Parameters | Discovery Circumstances | Close-Approach Data ]

Physical Parameter Table
Parameter Symbol Value Units Sigma Reference Notes
absolute magnitude H 16.2   n/a MPO450244  

312362 (2008 DV59)          Discovered 2008-Feb-27 by Mt. Lemmon Survey at Mount Lemmon
Reference: 20120109/Numbers.arcLast Updated: 2012-01-11

[ show close-approach data ]
Ephemeris | Orbit Diagram | Orbital Elements | Mission Design | Physical Parameters | Discovery Circumstances | Close-Approach Data ]
ABOUT SSD CREDITS/AWARDS PRIVACY/COPYRIGHT GLOSSARY LINKS
FirstGov 2020-Aug-09 00:07 UT
(server date/time)  
NASA Home Page
Site Manager:   Ryan S. Park
Webmaster  Alan B. Chamberlin